• Join FlightAware (Why Join?)
  • Login
  • US Flag 
11:21AM EST


 

Airport Tracker/Info


-or-


 

Live Flight TrackerFlight Track Log ✈ GJS6221 ✈ 04-May-2013 ✈ KBTV - KLGA

Flight Track Log - Related Links

Times and Time Zones

All times are in EDT time to prevent confusion due to time zone crossing. See the GJS6221 flight status page for this flight to view local times or setup timezone preferences in your user account.

Time Position Orientation Groundspeed Altitude Reporting Facility
EDT Latitude Longitude Course Direction KTS MPH feet Rate Location/Type
02:25PM 44.4081 -73.3089 196° South 282 325 8,900  Level Boston Center
02:26PM 44.3308 -73.3281 190° South 277 319 11,200 2,100 Climbing Boston Center
02:27PM 44.2431 -73.3558 193° South 305 351 13,200 1,800 Climbing Boston Center
02:28PM 44.1428 -73.3889 193° South 351 404 14,800 1,740 Climbing Boston Center
02:29PM 43.9928 -73.3296 196° South  Level FlightAware Approximate
02:29PM 44.0406 -73.4192 192° South 375 432 16,700  Level Boston Center
02:30PM 43.9140 -73.3611 196° South  Level FlightAware Approximate
02:30PM 43.9297 -73.4519 192° South 391 450 18,500  Level Boston Center
02:31PM 43.8231 -73.4847 193° South 397 457 20,200 1,620 Climbing Boston Center
02:32PM 43.7144 -73.5172 192° South 421 484 21,800 900 Climbing Boston Center
02:33PM 43.5850 -73.5578 193° South 434 499 22,000 60 Climbing Boston Center
02:34PM 43.4700 -73.5931 193° South 434 499 22,000  Level Boston Center
02:35PM 43.3508 -73.6250 191° South 434 499 22,000  Level Boston Center
02:36PM 43.2339 -73.6597 192° South 434 499 22,000  Level Boston Center
02:37PM 43.1125 -73.7000 194° South 434 499 22,000  Level Boston Center
02:38PM 43.0119 -73.7292 192° South 434 499 22,000  Level Boston Center
02:39PM 42.8928 -73.7664 193° South 429 494 22,000 -60 Level Boston Center
02:40PM 42.7736 -73.7978 191° South 434 499 21,900 -420 Descending Boston Center
02:41PM 42.6592 -73.7867 176° South 417 480 21,200 -780 Descending Boston Center
02:42PM 42.5364 -73.7644 172° South 412 474 20,400 -780 Descending Boston Center
02:43PM 42.4222 -73.7422 172° South 412 474 19,700 -660 Descending Boston Center
02:44PM 42.3369 -73.7236 171° South 406 467 19,100 -720 Descending Boston Center
02:45PM 42.2039 -73.6958 171° South 406 467 18,300 -600 Descending Boston Center
02:46PM 42.0978 -73.6739 171° South 406 467 18,000 -180 Descending Boston Center
02:47PM 41.9958 -73.6469 169° South 388 447 18,000 -120 Level Boston Center
02:48PM 41.9106 -73.6314 172° South 372 428 17,800 -480 Descending Boston Center
02:49PM 41.8108 -73.6100 171° South 342 394 17,100 -420 Descending Boston Center
02:50PM 41.7478 -73.6672 214° Southwest 300 345 17,000 -300 Descending Boston Center
02:51PM 41.6881 -73.7800 235° Southwest 299 344 16,500 -600 Descending Boston Center
02:52PM 41.6206 -73.8342 211° Southwest 317 365 15,800 -840 Descending Boston Center
02:53PM 41.5833 -73.8333 179° South 319 367 15,400 -1,800 Descending New York TRACON
02:54PM 41.5000 -73.8667 197° South 309 356 13,400 -2,100 Descending New York TRACON
02:55PM 41.4167 -73.8667 180° South 297 342 11,200 -2,160 Descending New York TRACON
02:56PM 41.3500 -73.8000 143° Southeast 279 321 9,100 -1,620 Descending New York TRACON
02:57PM 41.3000 -73.7500 143° Southeast 249 287 8,000 -1,320 Descending New York TRACON
02:58PM 41.2333 -73.7000 151° Southeast 238 274 6,500 -1,560 Descending New York TRACON
02:59PM 41.1833 -73.6500 143° Southeast 239 275 4,900 -1,260 Descending New York TRACON
03:00PM 41.1167 -73.6333 169° South 231 266 4,000 -480 Descending New York TRACON
03:01PM 41.0667 -73.6500 194° South 204 235 4,000  Level New York TRACON
03:02PM 41.0167 -73.6833 207° Southwest 201 231 4,000  Level New York TRACON
03:03PM 40.9667 -73.7167 207° Southwest 199 229 4,000 -360 Level New York TRACON
03:04PM 40.9167 -73.7500 207° Southwest 201 231 3,300 -900 Descending New York TRACON
03:05PM 40.8833 -73.8000 229° Southwest 184 212 2,200 -960 Descending New York TRACON
03:06PM 40.8500 -73.8167 201° Southwest 139 160 1,400 -600 Descending New York TRACON
03:07PM 40.8167 -73.8500 217° Southwest 136 157 1,000 -300 Descending New York TRACON
03:08PM 40.8167 -73.9000 270° West 147 169 900 -360 Descending New York TRACON
03:09PM 40.7833 -73.9000 180° South 137 158 400 -600 Descending New York TRACON
03:11PM 40.7772 -73.8726 180° South  Level Estimated
03:18PM 40.7772 -73.8726 180° South  Level Estimated